AQI (35)

Current Conditions for Foresthill, CA. Dawn, Clear skies, Dry   
Visibility: 10 miles
Foresthill Advisory text:

  Summary / Temperature 

Current Temperature
64.1°F
17.8°C
(24/hr Ago)
63.9°F
(Apparent temp)
60.5°F
Comfortable
Wind Chill Graphs
64.1°F 

64.9°F/ 18.3°C
 --- Virtual Temp: 66.5°F ---

 Temp Rate:

 24/hr Difference:

 Avg Running Temp:

 Todays High:

 Todays Low:

 Y-days High:

 Y-days Low:

 Todays WChill:

 Y-days WChill:

 Evapotranspiration:

-0.7°F/hr 

+0.2°F

64.9°F

68.1°F 12:00am

64.1°F 5:14am

83.0°F 3:06pm

62.8°F 6:48am

62.8°F 5:14am

60.9°F 6:57am

0.007 in

115' Above Ground

 Temperature:

 6'AGL VRS 115'AGL:

 Avg Running Temp:

 Humidity:

 Todays High:

 Todays Low:

 Y-days High:

 Y-days Low:

0.0°F 

+0.9°F

0.0°F

0% 

0.0°F 12:00am

0.0°F 12:00am

0.0°F 12:00am

0.0°F 12:00am

Temp & Humidity Graphs

  Wind 

Wind Speed

 8.0 mph

Gusting to

 14.0 mph

Wind from E

101°  E

Gentle breeze

 Avg speed:

 Wind Run:

 Peak Gust:

  5.0 mph 

15.0 miles

  14.0 mph 5:10am

  Almanac  

Moon age: 5 days,16 hours,20 minutes,32%

Waxing Crescent
35%
Illuminated
5 days in cycle

 Moonrise:

 Moonset:

 Sunrise:

 Sunset:

 Solar Noon:

11:55am

12:09am

5:40am

8:33pm

1:07pm

0min 25s less daylight tomorrow 

  Solar Radiation 

(Current Solar)
  No Sun Light
(Todays High)
 None@12:00am

Rain

 Rain Today:

 Rain Rate (/hr):

 Rain last hour:

 Rain Yesterday:

 This Month:

 Season Total:

16 Days Since Last Rain Day

0.00 in

0.000 in

0.00 in

0.00 in

0.39 in

82.77 in

Updated Time

Updated: 6/29/17  5:20am

(Updated  sec ago)

Humidity & Barometer

 Humidity:

 Wetbulb:

 Dew Point:

 Barometer:

53% 

54.9°F 

46.6°F 

29.868 inHg 

 Baro Trend:  Steady 
Northern Calif
Preparedness
Fire 
Level 

    UV Index  

(Current UV)
0.0  None
(Todays High) @ 12:00am
0.0   None

National Weather Service Forecast

Overnight

Overnight: Clear
Clear
Thursday

Thursday: Sunny
Sunny
Thursday
Night
Thursday Night: Clear
Clear
Friday

Friday: Sunny
Sunny
Friday
Night
Friday Night: Clear
Clear
Saturday

Saturday: Sunny
Sunny
Lo 62 °F Hi 87 °F Lo 66 °F Hi 89 °F Lo 65 °F Hi 90 °F

Foresthill Probe 2 Stats  
Foresthill Probe 2: is located on Thomas Street
at 3000 feet. The main Foresthill Weather site
is located on Melody ln at the 2860 foot elevation

Calm
62.3°F
16.8°C
Temp Rate:
-0.6°F
Calm
Gusting to
2.0 mph
(Humidity)
56%
Wind from ESE
103°  ESE
Updated: 29/06/17 - 05:16:24
 Todays High: 66.6°F 00:00
 Todays Low: 62.2°F 05:07
 Rain Today: 0.00 in
 Season Total: 89.33 in

Foresthill Wx: Monthly,Yearly, Highs and Lows 

Foresthill  
This Weather Data is coming from the main Foresthill
Weather site located on Melody ln at the 2860 foot
elevation
Not Foresthill Probe 2
Weather Data
Month
  High
Month
  Low
Year
High
Year
Low
Temp 94.2°F
6/22/17
42.2°F
6/11/17
94.2°F
6/22/17
27.6°F
2/24/17
Humidity 92%
6/10/17
14%
6/5/17
100%
1/1/17
14%
6/5/17
Heat Index 97.6°F
6/19/17
47.1°F
6/11/17
97.6°F
6/19/17
32.5°F
2/24/17
Wind Chill 94.2°F
6/22/17
34.1°F
6/11/17
94.2°F
6/22/17
14.0°F
2/24/17
Wind Gust 23 mph
6/11/17
0 mph
6/1/17
48 mph
1/10/17
0 mph
1/1/17
Barometer 30.21 in
6/12/17
29.64 in
6/22/17
30.69 in
1/27/17
29.29 in
2/17/17
ET 0.25 in
6/23/17
0.00 in
6/1/17
0.25 in
6/23/17
0.00 in
1/1/17
Dew Point 69.7°F
6/19/17
26.7°F
6/5/17
69.7°F
6/19/17
20.6°F
4/28/17
Pacific Satellite US Radar Satellite Imagery Sacramento,CA.  (click to enlarge)
NWS Weather Forecast - Summary
Updated: Thu Jun 29, 2017 - 3:32am (PDT)
Current Interstate Highway Conditions for I-80 & US-50

[I 80: IN THE SAN FRANCISCO BAY AREA - SOLANO CO]
no traffic restrictions are reported for this area.

[I 80: IN THE NORTHERN CALIFORNIA AREA & SIERRA NEVADA]
no traffic restrictions are reported for this area.

[US 50: IN THE SACRAMENTO VALLEY & THE LAKE TAHOE BASIN]
  1-way controlled traffic 5. 6 mi east of riverton /at alder creek rd/ (EL DORADO CO) from 6:00am to 6:00pm monday thru thursday thru 6/29/17 - due to construction
is reduced to 1 lane in each direction from 3 mi east of pollock pines to 1 mi west of riverton /at bridal veil falls rd/ (EL DORADO CO) - due to a slipout - motorists are subject to delays
NWS Weather Forecast: Overnight and Thursday (Updated: Thu, 29-Jun-2017 2:56am PDT)
Overnight

Overnight: Clear
Clear

Lo 62 °F
NWS forecast: Clear, with a low around 62. East wind around 6 mph.
Thursday

Thursday: Sunny
Sunny

Hi 87 °F
NWS forecast: Sunny, with a high near 87. West wind around 7 mph.
YR.NO 10 Day Weather forecast
Last update: 06/29/2017 @ 00:29
Next update: 06/29/2017 @ 13:00
Provided by: 22
      Temperature Precipitation Pressure Wind  
Today
06/29/2017
02:00 06:00 55°F   29.86 inHg Light breeze from east-northeast 5 mph
  06:00 12:00 55°F   29.86 inHg Light breeze from east-northeast 6 mph
  12:00 18:00 84°F   29.91 inHg Light breeze from west-southwest 7 mph
  18:00 00:00 84°F   29.86 inHg Light breeze from west-southwest 6 mph
    (Click to enlarge)
meteogram

    Forecast for next 9 days

      Temperature Precip Pressure Wind  
Friday
06/30/2017
00:00 06:00 61°F   29.90 inHg Light air from east-northeast 2 mph
  06:00 12:00 55°F   29.88 inHg Light breeze from east-northeast 4 mph
  12:00 18:00 86°F   29.89 inHg Light breeze from west-southwest 6 mph
  18:00 00:00 86°F   29.82 inHg Light breeze from southwest 5 mph
      Temperature Precip Pressure Wind  
Saturday
07/01/2017
00:00 06:00 61°F   29.84 inHg Light breeze from east-northeast 5 mph
  06:00 12:00 57°F   29.82 inHg Light breeze from east-northeast 4 mph
  12:00 18:00 86°F   29.83 inHg Light breeze from west-southwest 6 mph
  17:00 23:00 90°F   29.75 inHg Light breeze from west-southwest 6 mph
  23:00 05:00 68°F   29.80 inHg Light air from east-northeast 1 mph
      Temperature Precip Pressure Wind  
Sunday
07/02/2017
05:00 11:00 59°F   29.77 inHg Light breeze from east-northeast 5 mph
  11:00 17:00 88°F   29.83 inHg Light breeze from west-southwest 6 mph
  17:00 23:00 90°F   29.82 inHg Light breeze from southwest 7 mph
  23:00 05:00 68°F   29.91 inHg Light air from east 1 mph
      Temperature Precip Pressure Wind  
Monday
07/03/2017
05:00 11:00 59°F   29.88 inHg Light breeze from east-northeast 4 mph
  11:00 17:00 82°F   29.94 inHg Light breeze from west-southwest 6 mph
  17:00 23:00 84°F   29.90 inHg Light breeze from southwest 7 mph
  23:00 05:00 64°F   29.92 inHg Light air from east-southeast 1 mph
      Temperature Precip Pressure Wind  
Tuesday
07/04/2017
05:00 11:00 57°F   29.91 inHg Light air from east 2 mph
  11:00 17:00 79°F   29.93 inHg Light breeze from southwest 6 mph
  17:00 23:00 81°F   29.87 inHg Light breeze from southwest 7 mph
  23:00 05:00 63°F   29.91 inHg Light air from southeast 2 mph
      Temperature Precip Pressure Wind  
Wednesday
07/05/2017
05:00 11:00 54°F   29.90 inHg Light air from east 2 mph
  11:00 17:00 75°F   29.94 inHg Light breeze from southwest 6 mph
  17:00 23:00 77°F   29.91 inHg Gentle breeze from south-southwest 8 mph
  23:00 05:00 61°F   29.96 inHg Light air from east-southeast 3 mph
      Temperature Precip Pressure Wind  
Thursday
07/06/2017
05:00 11:00 54°F   29.97 inHg Light breeze from east-northeast 5 mph
  11:00 17:00 81°F   30.00 inHg Light breeze from southwest 6 mph
  17:00 23:00 84°F   29.94 inHg Light breeze from southwest 6 mph
  23:00 05:00 63°F   29.97 inHg Light air from east-northeast 2 mph
      Temperature Precip Pressure Wind  
Friday
07/07/2017
05:00 11:00 55°F   29.96 inHg Light breeze from east-northeast 5 mph
  11:00 17:00 86°F   29.97 inHg Light breeze from southwest 6 mph
  17:00 23:00 88°F   29.91 inHg Light breeze from southwest 6 mph
  23:00 05:00 66°F   29.93 inHg Light breeze from east 4 mph
      Temperature Precip Pressure Wind  
Saturday
07/08/2017
05:00 11:00 55°F   29.89 inHg Light breeze from east-northeast 5 mph
  11:00 17:00 88°F   29.90 inHg Light breeze from southwest 5 mph
How Close Are We To this Month's Temperature Record ?
Updated Thursday, Jun 29, 2017- 5:15:01 AM

Current Temperature: 64.1°F

June's High: Temperature Record 95.1°F - Set on Sat, Jun 8, 2013 - 3:58:00 PM
We are currently 31°F Less than this Month's record High

June's Low: Temperature Record 40.8°F - Set on Tue, Jun 5, 2012 - 5:41:00 AM
We are currently 23.3°F More than this Month's record Low

Weather History For Thursday, June 29, 2017


On this Day - In Weather History ...
Data courtesy of weatherforyou.com
powered by Cumulus v1.9.3 (1059)
Ambient Weather VWS v14.00
Top Contact Website Map Copyright © 2007 - 2017 Foresthillweather.com Never base important decisions on this or any weather information obtained from the Internet